Henrikh Movsisyan

Chief Scout - BKMA
4 Dec 2028
Monday
Process

Personality

Adaptability (14) Ambition (7) Controversy (3) Loyalty (18) Pressure (2) Professionalism (11) Sportsmanship (1) Temperament (12)

Profile

Coaching Style Democratic
License Continental B
Determination 7
Man Management 3
Motivating 8
Discipline 7
Job Satisfaction
89%
Fatigue
0%
Role Chief Scout
Wage 10.3K p/w
Contract 14.03.2030

Performance

Behaviour Good
Training Effectiveness
22%
Player Development
35%
Injury Prevention
35%
Tactical Implementation
20%

Recent Events

Attended a recruitment meeting now
Attended a recruitment meeting now
Recommended a transfer target now
Attended a recruitment meeting 7d ago
Attended a recruitment meeting 7d ago
Recommended a transfer target 7d ago
Recommended a transfer target 7d ago
Recommended a transfer target 7d ago

Currently Monitoring

78
Player Club Status Ability Confidence Watched Last Observed Latest Vote
Alexandre Llovet Urartu Active 89 / 85 58% 1 31.07.2028 Approve
Aram Bayramyan Pyunik Active 76 / 91 58% 1 12.06.2028 Approve
Edgar Karapetyan Pyunik Active 81 / 93 58% 1 01.06.2028 Approve
Luis Olivera Defensores Unidos Active 124 / 96 40% 2 30.12.2027 -
Lautaro Núñez Alvarado Active 107 / 95 40% 1 30.12.2027 -
Hosea Michael Remo Stars Active 86 / 106 40% 2 28.12.2027 -
Franco Malagueño Colegiales Active 93 / 101 40% 1 28.12.2027 -
Walter Juárez Güemes Active 96 / 104 40% 3 27.12.2027 -
Yeferson Rincon Atletico Venezuela Active 99 / 105 40% 1 26.12.2027 -
Tomás Rojas Atlanta Active 101 / 127 40% 4 25.12.2027 -
Matías Machado Racing Active 126 / 119 40% 4 25.12.2027 -
Matías Sánchez Racing Active 103 / 117 40% 3 24.12.2027 -
Ismael Cortez Gimnasia y Esgrima Active 117 / 129 40% 1 23.12.2027 -
Rodrigo Ramírez Nueva Chicago Active 126 / 98 40% 2 19.12.2027 -
Valentín Serrano Arsenal Active 115 / 115 40% 2 16.12.2027 -
Agustín Benítez Defensores Active 113 / 123 40% 5 15.12.2027 -
Fernando Bersano Madryn Active 102 / 119 40% 9 14.12.2027 -
Federico Ulayar Talleres Active 93 / 84 40% 3 13.12.2027 -
Martín García Atlanta Active 111 / 118 40% 3 11.12.2027 -
Tiago Ferreyra Mitre Active 116 / 105 40% 1 11.12.2027 -
Leandro Lucero Temperley Active 130 / 106 40% 1 08.12.2027 -
Franco Díaz Temperley Active 110 / 137 40% 3 06.12.2027 -
Marcos Enrique Tristán Suárez Active 113 / 98 40% 3 24.11.2027 -
Yeferson Rodallega Envigado Active 101 / 124 40% 2 24.11.2027 -
Pedro Sanz Central Norte Active 121 / 120 40% 2 22.11.2027 -
Misael Tarón Ferro Carril Oeste Active 129 / 115 40% 1 21.11.2027 -
Santiago Kubiszyn Morón Active 117 / 107 40% 2 20.11.2027 -
Simón Contreras Iquique Active 103 / 87 40% 1 20.11.2027 -
Tomás Ferreyra Defensores Unidos Active 126 / 127 40% 5 17.11.2027 -
Mauricio Guzmán Tristán Suárez Active 105 / 111 40% 1 17.11.2027 -
Maico Quiroz Güemes Active 115 / 102 40% 4 15.11.2027 -
Marcio Gómez Racing Active 115 / 103 40% 2 05.11.2027 -
Pedro Souto Temperley Active 106 / 105 40% 4 29.10.2027 -
Nicolás Fernández Maipú Active 119 / 121 40% 3 28.10.2027 -
Braian Aranda Agropecuario Argentino Active 110 / 107 40% 2 26.10.2027 -
Brian Nievas Chaco For Ever Active 104 / 117 40% 2 21.10.2027 -
Franco Camargo Gimnasia y Esgrima Active 113 / 103 40% 2 19.10.2027 -
Tomás Porra Barracas Central Active 130 / 115 40% 1 19.10.2027 -
Yvo Calleros Madryn Active 118 / 110 40% 2 18.10.2027 -
Matías Bazzi Talleres Active 88 / 103 40% 2 16.10.2027 -
Alejo Tabares All Boys Active 109 / 105 40% 1 14.10.2027 -
Ian Pérez Defensores Active 106 / 92 40% 1 02.10.2027 -
Tomás Castro Ponce Atlanta Active 102 / 108 40% 1 25.09.2027 -
Lucas Monzón Alvarado Active 127 / 127 40% 1 19.09.2027 -
Gabriel Díaz Patronato Active 100 / 121 40% 1 06.09.2027 -
Ruslan Apekov Torpedo Moscow Active 113 / 91 40% 2 30.12.2026 -
Víctor Guzmán Sporting CP Active 93 / 109 40% 1 28.12.2026 -
Denis Rubanov Dinamo Stavropol Active 85 / 74 40% 1 27.12.2026 -
Dmitry Kuptsov Spartak Tambov Active 97 / 77 40% 1 27.12.2026 -
Rüstəm Əhmədzadə Sumgayit Active 123 / 102 40% 2 24.12.2026 -
Darío Ramírez Real Sociedad Active 84 / 101 40% 1 23.12.2026 -
Kamran Aliev SKA Khabarovsk Active 119 / 98 40% 1 23.12.2026 -
Akintunde Azeez US Bougouni Active 94 / 83 40% 1 23.12.2026 -
Felipe Anderson Palmeiras Active 133 / 134 40% 2 21.12.2026 -
Yeangel Montero Naxxar Lions Active 104 / 93 40% 2 21.12.2026 -
Darko Todorović Fakel Active 105 / 100 40% 1 20.12.2026 -
Paolo Yrizar Chernomorets Active 78 / 111 40% 1 18.12.2026 -
Ekain Orobengoa Real Sociedad Active 99 / 95 40% 1 18.12.2026 -
Bruno Gomes Valletta Active 104 / 98 40% 1 17.12.2026 -
Ramazan Gadjimuradov Chelyabinsk Active 111 / 102 40% 1 16.12.2026 -
Mateo Ortale Khazar Active 113 / 103 40% 1 15.12.2026 -
Tumiso Mogakwe Birkirkara Active 83 / 88 40% 1 15.12.2026 -
Alexandr Yushin Torpedo Moscow Active 117 / 118 40% 1 11.12.2026 -
Said Aliev Rotor Active 86 / 85 40% 1 09.12.2026 -
Roko Prša Valletta Active 96 / 99 40% 1 08.12.2026 -
Alexandr Olenev Nart Active 67 / 84 40% 1 07.12.2026 -
Shahriyar Abdullayev Ravan Active 112 / 97 40% 1 07.12.2026 -
Gbolahan Salami Active 86 / 89 40% 1 02.12.2026 -
Stanislav Biblyk Chaika Active 101 / 84 40% 1 25.11.2026 -
Mason Bennett Harrogate Town Active 82 / 95 40% 1 25.11.2026 -
Salman Abubakar Mosta Active 92 / 77 40% 1 23.11.2026 -
Teddy Teuma Sliema Wanderers Active 128 / 132 40% 1 21.11.2026 -
Nikita Simdyankin KDV Tomsk Active 89 / 89 40% 1 19.11.2026 -
Dmitry Lesnikov Volgar Active 78 / 99 40% 1 17.11.2026 -
Miloš Jovičić Zabbar St. Patrick Active 84 / 98 40% 1 17.11.2026 -
Moussa Kanté Ararat Active 93 / 104 55% 1 10.08.2026 -
Mauro Van Active 78 / 82 55% 1 03.08.2026 Monitor
Edgar Grigoryan Ararat-Armenia Active 108 / 117 40% 1 03.08.2026 -